Location: Shepherdstown, WV
(39.4326°N, 77.8042°W)
Time: 16:07:25
(UTC-04:00)

Tiros 1 despin weight - Pass Details

Date: 09 August 2021
Orbit: 593 x 641 km, 48.2° (Epoch: 18 September)

Event Time Altitude Azimuth Distance (km) Brightness Sun altitude
Rises 15:33:40 0° 301° (WNW) 2,935 ? 51.8°
Reaches altitude 10° 15:36:08 10° 309° (NW) 2,029 ? 51.4°
Maximum altitude 15:40:31 39° 18° (NNE) 960 ? 50.6°
Drops below altitude 10° 15:44:55 10° 88° (E) 2,027 ? 49.9°
Sets 15:47:23 0° 96° (E) 2,932 ? 49.4°
